Simultaneous Nadir Overpasses (SNOs) Predictions

Prediction of SNOs between NOAA-20 and METOP-C Satellite Orbit:

Table of predicted SNOs for the next 14.0 days since TLE Epoch: 2/24/2024
Index Date (NOAA-20) Time (NOAA-20) Lat,Lon (NOAA-20) SZA (NOAA-20 ) Date (METOP-C) Time (METOP-C) Lat,Lon (METOP-C) SZA (METOP-C ) Distance(km) Time Diff (sec)
1 03/04/2024 00:00:32 73.49, 170.16 80.13 03/04/2024 00:01:39 73.40, 172.67 79.89 80.09 67
2 03/04/2024 00:51:15 -73.44, -22.41 99.94 03/04/2024 00:52:23 -73.35, -20.13 100.18 73.15 68
3 03/04/2024 01:41:55 73.15, 145.56 79.72 03/04/2024 01:43:06 73.13, 146.73 79.62 37.75 71
4 03/04/2024 02:32:38 -73.10, -47.02 100.35 03/04/2024 02:33:50 -73.08, -46.07 100.44 30.89 72
5 03/04/2024 03:23:20 72.90, 120.72 79.42 03/04/2024 03:24:33 72.86, 120.80 79.36 5.38 73
6 03/04/2024 04:14:03 -72.85, -71.87 100.65 03/04/2024 04:15:16 -72.86, -71.88 100.67 0.62 73
7 03/04/2024 05:04:49 72.85, 95.44 79.34 03/04/2024 05:05:55 72.84, 95.42 79.31 1.95 66
8 03/04/2024 05:55:33 -72.86, -97.25 100.67 03/04/2024 05:56:38 -72.84, -97.26 100.71 2.47 65
9 03/04/2024 06:46:19 72.86, 70.05 79.32 03/04/2024 06:47:16 72.87, 70.14 79.31 3.20 57
10 03/04/2024 07:37:03 -72.86,-122.64 100.69 03/04/2024 07:37:59 -72.87,-122.54 100.71 3.33 56
11 03/04/2024 08:27:48 72.82, 44.77 79.24 03/04/2024 08:28:38 72.85, 44.76 79.26 3.40 50
12 03/04/2024 09:18:32 -72.82,-147.92 100.77 03/04/2024 09:19:21 -72.84,-147.92 100.76 2.84 49
13 03/04/2024 10:09:18 72.82, 19.38 79.22 03/04/2024 10:10:00 72.83, 19.38 79.22 0.43 42
14 03/04/2024 11:00:02 -72.83,-173.31 100.79 03/04/2024 11:00:43 -72.82,-173.31 100.80 0.14 41
15 03/04/2024 11:50:48 72.83, -6.01 79.20 03/04/2024 11:51:22 72.80, -6.01 79.17 2.61 34
16 03/04/2024 12:41:32 -72.83, 161.30 100.81 03/04/2024 12:42:05 -72.80, 161.31 100.85 3.10 33
17 03/04/2024 13:32:17 72.78, -31.29 79.13 03/04/2024 13:32:44 72.78, -31.39 79.13 3.44 27
18 03/04/2024 14:23:01 -72.79, 136.02 100.89 03/04/2024 14:23:27 -72.78, 135.93 100.89 3.22 26
19 03/04/2024 15:13:47 72.79, -56.67 79.11 03/04/2024 15:14:05 72.81, -56.67 79.12 2.67 18
20 03/04/2024 16:04:31 -72.79, 110.64 100.91 03/04/2024 16:04:48 -72.81, 110.65 100.90 2.23 17
21 03/04/2024 16:55:17 72.80, -82.06 79.08 03/04/2024 16:55:27 72.79, -82.05 79.08 0.43 10
22 03/04/2024 17:46:01 -72.80, 85.25 100.93 03/04/2024 17:46:10 -72.79, 85.27 100.94 0.93 9
23 03/04/2024 18:36:47 72.80,-107.45 79.06 03/04/2024 18:36:49 72.77,-107.44 79.03 3.37 2
24 03/04/2024 19:27:30 -72.75, 59.97 101.01 03/04/2024 19:27:32 -72.77, 59.88 100.99 3.40 2
25 03/04/2024 20:18:16 72.76,-132.73 78.99 03/04/2024 20:18:11 72.75,-132.82 78.99 3.08 5
26 03/04/2024 21:09:00 -72.76, 34.58 101.03 03/04/2024 21:08:54 -72.75, 34.50 101.03 2.95 6
27 03/04/2024 21:59:46 72.76,-158.12 78.97 03/04/2024 21:59:32 72.78,-158.10 78.99 2.01 14
28 03/04/2024 22:50:30 -72.77, 9.20 101.05 03/04/2024 22:50:15 -72.78, 9.22 101.03 1.75 15
29 03/04/2024 23:41:16 72.77, 176.50 78.95 03/04/2024 23:40:54 72.76, 176.52 78.94 1.31 22
30 03/05/2024 00:31:59 -72.77, -16.19 101.07 03/05/2024 00:31:36 -72.76, -16.16 101.08 1.74 23
31 03/05/2024 01:22:44 72.72, 151.22 78.87 03/05/2024 01:22:15 72.74, 151.14 78.89 3.06 29
32 03/05/2024 02:13:28 -72.73, -41.47 101.15 03/05/2024 02:12:58 -72.74, -41.54 101.12 2.66 30
33 03/05/2024 03:04:14 72.73, 125.83 78.85 03/05/2024 03:03:37 72.72, 125.75 78.85 2.94 37
34 03/05/2024 03:54:58 -72.73, -66.86 101.17 03/05/2024 03:54:20 -72.72, -66.93 101.17 2.89 38
35 03/05/2024 04:45:44 72.74, 100.44 78.83 03/05/2024 04:44:58 72.75, 100.47 78.85 1.56 46
36 03/05/2024 05:36:28 -72.74, -92.25 101.19 03/05/2024 05:35:41 -72.75, -92.21 101.17 1.56 47
37 03/05/2024 06:27:14 72.74, 75.06 78.81 03/05/2024 06:26:20 72.73, 75.09 78.80 2.21 54
38 03/05/2024 07:17:58 -72.74,-117.63 101.21 03/05/2024 07:17:03 -72.73,-117.59 101.22 2.57 55
39 03/05/2024 08:08:43 72.70, 49.77 78.73 03/05/2024 08:07:42 72.70, 49.71 78.76 2.31 61
40 03/05/2024 08:59:27 -72.70,-142.91 101.29 03/05/2024 08:58:25 -72.70,-142.97 101.26 1.97 62
41 03/05/2024 09:50:13 72.70, 24.39 78.71 03/05/2024 09:49:04 72.68, 24.32 78.71 3.07 69
42 03/05/2024 10:40:57 -72.71,-168.30 101.31 03/05/2024 10:39:47 -72.68,-168.35 101.31 3.07 70
43 03/05/2024 11:31:41 72.61, -0.79 78.58 03/05/2024 11:30:27 72.61, -1.16 78.62 12.34 74
44 03/05/2024 12:22:24 -72.56, 166.62 101.49 03/05/2024 12:21:11 -72.56, 166.06 101.44 18.91 73
45 03/05/2024 13:13:05 72.31, -25.56 78.22 03/05/2024 13:11:55 72.28, -27.16 78.31 53.88 70
46 03/05/2024 14:03:48 -72.26, 141.85 101.85 03/05/2024 14:02:38 -72.29, 140.17 101.71 56.82 70
47 03/05/2024 14:54:29 72.01, -50.36 77.87 03/05/2024 14:53:22 72.01, -53.03 78.04 91.83 67
48 03/05/2024 15:45:12 -71.96, 117.05 102.20 03/05/2024 15:44:06 -71.96, 114.20 102.02 98.07 66



Historial Predications of SNOs between NOAA-20 and METOP-C
